EW9464 Weather Reports


time (UTC)temp
C
wind
direction
speed
KPH
gust
KPH
rain 1hr
cm
rain 24hr
cm
rain mn
cm
humidity
%
barometer
mb
20260508164544 12 360 11.3 20.9 0.00 0.00 0.00 47 1019.0
20260508163043 12 360 14.5 24.1 0.00 0.00 0.00 49 1018.9
20260508161545 12 360 9.7 22.5 0.00 0.00 0.00 49 1019.3
20260508160138 12 360 12.9 22.5 0.00 0.00 0.00 48 1019.3
20260508154542 12 360 14.5 22.5 0.00 0.00 0.00 44 1019.4
20260508153032 11 360 9.7 19.3 0.00 0.00 0.00 43 1019.6
20260508151531 11 360 9.7 19.3 0.00 0.00 0.00 42 1019.6
20260508150029 11 360 6.4 14.5 0.00 0.00 0.00 45 1019.7
20260508144524 10 360 3.2 16.1 0.00 0.00 0.00 44 1019.6
20260508143020 9 360 4.8 14.5 0.00 0.00 0.00 43 1019.6
20260508141518 7 360 1.6 12.9 0.00 0.00 0.00 47 1019.6
20260508140015 7 360 4.8 12.9 0.00 0.00 0.00 49 1019.7
20260508134511 7 360 3.2 6.4 0.00 0.00 0.00 43 1019.6
20260508133006 7 360 1.6 6.4 0.00 0.00 0.00 40 1019.3
20260508131504 7 360 1.6 4.8 0.00 0.00 0.00 41 1019.2
20260508130003 7 360 3.2 6.4 0.00 0.00 0.00 41 1018.9
20260508124558 6 360 1.6 6.4 0.00 0.00 0.00 44 1019.0
20260508123058 5 360 3.2 8.0 0.00 0.00 0.00 54 1018.7
20260508121603 5 360 4.8 12.9 0.00 0.00 0.00 64 1018.6
20260508120058 3 360 4.8 14.5 0.00 0.00 0.00 67 1018.3
20260508114548 3 360 4.8 12.9 0.00 0.00 0.00 73 1017.9
20260508113055 2 360 3.2 12.9 0.00 0.00 0.00 76 1017.4
20260508111554 2 360 3.2 9.7 0.00 0.00 0.00 81 1017.2
20260508110056 2 360 4.8 14.5 0.00 0.00 0.00 82 1016.9
20260508104538 1 360 4.8 16.1 0.00 0.00 0.00 84 1016.8
20260508103047 1 360 6.4 16.1 0.00 0.00 0.00 84 1016.2
20260508101541 1 360 6.4 14.5 0.00 0.00 0.00 84 1016.1
20260508100032 1 360 6.4 16.1 0.00 0.00 0.00 80 1015.8
20260508094529 1 360 6.4 19.3 0.00 0.00 0.00 64 1015.7
20260508093028 1 360 8.0 19.3 0.00 0.00 0.00 57 1015.6
20260508091526 1 360 8.0 19.3 0.00 0.00 0.00 57 1015.5
20260508090024 1 360 8.0 19.3 0.00 0.00 0.00 56 1015.4
20260508084521 1 360 8.0 22.5 0.00 0.00 0.00 56 1015.3
20260508083019 0 360 8.0 16.1 0.00 0.00 0.00 56 1015.2
20260508081519 0 360 8.0 19.3 0.00 0.00 0.00 56 1015.2
20260508080016 1 360 8.0 19.3 0.00 0.00 0.00 56 1015.2
20260508074549 1 360 6.4 16.1 0.00 0.00 0.00 56 1015.1
20260508073040 1 360 6.4 17.7 0.00 0.00 0.00 55 1015.0
20260508071508 1 360 3.2 14.5 0.00 0.00 0.00 55 1015.0
20260508070006 2 360 4.8 16.1 0.00 0.00 0.00 55 1015.1
20260508064615 2 360 6.4 17.7 0.00 0.00 0.00 54 1015.2
20260508063058 2 360 3.2 19.3 0.00 0.00 0.00 54 1015.3
20260508061558 2 360 11.3 22.5 0.00 0.00 0.00 54 1015.1
20260508060054 3 360 6.4 20.9 0.00 0.00 0.00 54 1015.3
20260508054600 3 360 9.7 19.3 0.00 0.00 0.00 53 1015.3
20260508053023 3 360 6.4 20.9 0.00 0.00 0.00 53 1015.1
20260508051517 3 360 3.2 22.5 0.00 0.00 0.00 53 1015.1
20260508050044 3 360 9.7 24.1 0.00 0.00 0.00 53 1015.0
20260508044543 3 360 12.9 25.7 0.00 0.00 0.00 52 1014.8
20260508043042 4 360 11.3 27.4 0.00 0.00 0.00 52 1014.6
20260508041539 4 360 6.4 25.7 0.00 0.00 0.00 52 1014.5
20260508040040 4 360 8.0 24.1 0.00 0.00 0.00 53 1014.5
20260508034537 4 360 9.7 19.3 0.00 0.00 0.00 53 1014.3
20260508033005 4 360 4.8 22.5 0.00 0.00 0.00 53 1014.3
20260508031505 3 360 12.9 27.4 0.00 0.00 0.00 53 1014.2
20260508030002 4 360 9.7 25.7 0.00 0.00 0.00 53 1014.0
20260508024503 4 360 12.9 25.7 0.00 0.00 0.00 53 1013.7
20260508023100 4 360 11.3 20.9 0.00 0.00 0.00 53 1013.9
20260508021558 3 360 8.0 17.7 0.00 0.00 0.00 53 1013.8
20260508020056 3 360 6.4 19.3 0.00 0.00 0.00 53 1013.5
20260508014555 3 360 3.2 16.1 0.00 0.00 0.00 54 1013.2
20260508011551 3 360 4.8 16.1 0.00 0.00 0.00 54 1012.7
20260508010045 3 360 4.8 20.9 0.00 0.00 0.00 54 1012.4
20260508004543 3 360 6.4 16.1 0.00 0.00 0.00 54 1012.1
20260508003057 3 360 9.7 20.9 0.00 0.00 0.00 54 1011.8
20260508001543 3 360 8.0 20.9 0.00 0.00 0.00 54 1011.9
20260508000042 3 360 9.7 20.9 0.00 0.00 0.00 54 1011.8
20260507234635 3 360 11.3 25.7 0.00 0.00 0.00 54 1012.0
20260507233037 3 360 8.0 24.1 0.00 0.00 0.00 55 1011.8
20260507231534 3 360 8.0 27.4 0.00 0.00 0.00 55 1011.8
20260507230030 3 360 12.9 29.0 0.00 0.00 0.00 55 1011.7
20260507224527 3 360 14.5 27.4 0.00 0.00 0.00 55 1011.5
20260507223024 4 360 8.0 25.7 0.00 0.00 0.00 55 1011.2
20260507221520 4 360 8.0 19.3 0.00 0.00 0.00 55 1010.9
20260507220016 4 360 4.8 22.5 0.00 0.00 0.00 56 1010.7
20260507214515 4 360 6.4 19.3 0.00 0.00 0.00 56 1010.7
20260507213012 4 360 9.7 22.5 0.00 0.00 0.00 57 1010.5
20260507211510 5 360 12.9 25.7 0.00 0.00 0.00 57 1010.3
20260507210005 5 360 11.3 29.0 0.00 0.00 0.00 58 1009.9
20260507204501 6 360 8.0 24.1 0.00 0.00 0.00 57 1009.8
20260507203110 6 360 4.8 19.3 0.00 0.00 0.00 57 1009.5
20260507201611 6 360 6.4 17.7 0.00 0.00 0.00 58 1009.5
20260507200024 6 360 8.0 17.7 0.00 0.00 0.00 58 1009.1
20260507194524 7 360 12.9 22.5 0.00 0.00 0.00 60 1009.2
20260507193018 7 360 9.7 20.9 0.00 0.00 0.00 63 1009.3
20260507191514 7 360 11.3 25.7 0.00 0.00 0.00 62 1009.2
20260507190012 7 360 8.0 25.7 0.00 0.00 0.00 70 1009.9
20260507184512 8 360 12.9 29.0 0.00 0.00 0.00 76 1009.6
20260507183005 10 360 16.1 27.4 0.00 0.00 0.00 79 1009.4
20260507181505 9 360 11.3 25.7 0.00 0.00 0.00 73 1009.4
20260507180006 9 360 12.9 22.5 0.00 0.00 0.00 67 1009.3
20260507174501 8 360 14.5 27.4 0.00 0.00 0.00 64 1009.4
20260507173103 8 360 9.7 25.7 0.00 0.00 0.00 69 1009.4
20260507171557 9 360 8.0 16.1 0.00 0.00 0.00 73 1009.3
20260507170053 10 360 4.8 24.1 0.00 0.00 0.00 71 1009.3